Showing default

GAOFEN 11-05, 60249

Orbit data source: Space-Track

GAOFEN 11-05, 60249 is a payload satellite owned by Yaogan Zongti (CN) in SSO that was launched on Fri, 19 Jul 2024 UTC via a CHANG ZHENG 4B launch vehicle from the Taiyaun Space Center, China (TSC). Payload-class satellites include a variety of spacecraft equipped with specific instruments for various scientific and technological missions. These include communications satellites like Starlink; space stations such as the ISS; scientific satellites like the Hubble; Earth observation satellites from companies like Planet Labs, Umbra, and HawkEye 360; GPS; miniature CubeSats for education and research; and military/defense satellites.

Loading next visibility...
Identifier
60249, 2024-130A
Orbit
SSO
Country
Flag of CNCN / PRC
Related business
Manufacturer
CAST/YWZB
Mission
Operational spacecraft
Bus & Motor
JB-16, Unknown motor
Mass
~3,000 kg wet, ~3,000 kg dry
Launch date (UTC)
2024-07-19 (1 year ago)
Launch vehicle
CHANG ZHENG 4B
Launch site
Taiyaun Space Center, China (TSC)
Object type
Payload
Rocket body
Debris
Shape & HBR
Unknown
Radar Cross Section
Large (>1 m²)

Expand to show TLE details & history
Last TLE update: 10 hours ago

TLE from 10 hours ago
0 GAOFEN 11-05
1 60249U 24130A   25259.63208941  .00007600  00000-0  32274-3 0  9991
2 60249  97.4280 336.2593 0001716  46.1369 314.0009 15.23354109 43814
Epoch: 2025-09-16T15:10Z
TLE epoch observation values (Epoch: 2025-09-16T15:10:12.525Z)
Latitude
-0.00004°
Longitude
112.88751°
Altitude
498.007 km
Speed
7.616 km/s
True Right ascension
22h 25m 02s
True Declination
0° 00' 00"
Sunlit
Object was in full shadow at epoch
Visualization orbit readout
Latitude
Unknown
Longitude
Unknown
Altitude
Unknown
Speed
Unknown
Apparent Right ascension
Unknown
Apparent Declination
Unknown
Sunlit
N/A
Visualization observer readout
Local Sidereal Time
17:48:22
Azimuth
Unknown
Elevation
Unknown
Doppler factor
Unknown
Orbital elements
Apogee altitude
493.874 km
Perigee altitude
491.515 km
Semi-major axis
6,870.831 km
Eccentricity
0.00017
Inclination
97.428°
RAAN
336.2593°
Arg. of periapsis
46.1369°
True anomaly
313.98675°
Mean anomaly
314.0009°
Eccentric anomaly
313.99383°
Mean motion
3.81091 °/min
Orbital period
94.47 mins
BSTAR
0.00032274
Loading maneuver chart data...
Computing Atmospheric mass density...
Loading historical data...
Loading historical data...
Loading historical data...
Loading historical data...
Loading historical data...
Loading historical data...
Loading historical data...
Other satellites on launch #130 in the year 2024 (2024-07-19 UTC)

Documentation

Showing up to 5 results
|